Tizayuca Airport

Jump to: basic info | weather | runways | comments

Related pages: nearby airports | nearby navaids | notams | map

Basic information (top)

Codes: MM28
Location: lon 19.874001, lat -98.943604, elev 7,600 ft / 2,316 m msl
Status: small_airport

Weather (top)

Current conditions for Licenciado Benito Juarez International Airport 27nm (50km) SSW (rec'd 2014/12/20 15:35Z):

MMMX 201535Z 08004KT 4SM BKN200 15/07 A3035 NOSIG RMK 8/004 HZY

Airport forecast for Licenciado Benito Juarez International Airport 27nm (50km) SSW (rec'd 2014/12/20 06:57Z):

TAF MMMX 200550Z 2006/2112 22005KT P6SM SCT020 TX24/2021Z TN09/2012Z 
     FM201800 16010KT P6SM SCT020 BKN250 
     FM210600 04005KT P6SM SCT250

Runways (top)

01/19: 4,235 x 80 ft (1,291 x 24 m) — paved — not lighted

Latest comments (top)

No comments yet for Tizayuca Airport

More... (top)

See also NOTAMs and nearby airports and navaids, or visit the Tizayuca Airport page at the main OurAirports website..